Flag Weather past 2 weeks in Buxtehude, Lower Saxony, Germany

Now
36 °F

Passing clouds.


Feels Like: 27 °F
Forecast: 29 / 34 °F
Wind: 14 mph from Southeast

Location: Hamburg-Finkenwerder

Current Time: Nov 28, 2014 at 8:21:13 AM

Latest Report: Nov 28, 2014 at 7:50 AM


Visibility: 5 mi

Pressure: 30.04 "Hg

Humidity: 81%

Dew point: 30 °F

Location of BuxtehudeLocation

Historic Weather in Buxtehude — Graph

°F

Buxtehude temperature yesterday

Maximum temperature yesterday: 39 °F (at 1:50 PM)
Minimum temperature yesterday: 36 °F (at 7:50 AM)
Average temperature yesterday: 38 °F

Past Weeks' High & Low Weather Summary

 TemperatureHumidityPressure
High54 °F (Nov 14, 1:20 PM)100% (Nov 13, 7:20 AM)30.39 "Hg (Nov 13, 7:20 AM)
Low32 °F (Nov 21, 5:50 AM)75% (Nov 27, 4:50 PM)29.65 "Hg (Nov 15, 3:20 PM)
Average44 °F92%30.07 "Hg
* Reported Nov 13 7:20 AM — Nov 28 7:20 AM, Buxtehude, Weather by CustomWeather, © 2014

Note: Actual official high and low records may vary slightly from our data, if they occured in-between our weather recording intervals... More about our weather records

Advertising

Buxtehude weather history for previous 24 hours

 ConditionsComfort  
Time TempWeatherWind HumidityBarometerVisibility
7:20 AM
Nov 28
36 °FPassing clouds.13 mph81%30.01 "HgN/A
6:50 AM36 °FPassing clouds.13 mph81%30.01 "HgN/A
6:20 AM36 °FPassing clouds.14 mph81%30.01 "HgN/A
5:50 AM36 °FPassing clouds.14 mph87%29.98 "HgN/A
7:50 PM
Nov 27
37 °FPassing clouds.10 mph81%29.95 "HgN/A
7:20 PM37 °FPassing clouds.12 mph81%29.95 "HgN/A
6:50 PM37 °FPassing clouds.12 mph81%29.92 "HgN/A
6:20 PM37 °FPassing clouds.12 mph81%29.92 "HgN/A
5:50 PM37 °FPassing clouds.9 mph81%29.92 "HgN/A
5:20 PM39 °FPassing clouds.13 mph75%29.92 "HgN/A
4:50 PM39 °FPassing clouds.9 mph75%29.92 "HgN/A
4:20 PM39 °FChilly.14 mph81%29.92 "HgN/A
3:50 PM39 °FClear.12 mph81%29.92 "HgN/A
3:20 PM39 °FClear.12 mph81%29.92 "HgN/A
2:50 PM39 °FPassing clouds.12 mph81%29.92 "HgN/A
2:20 PM39 °FPartly sunny.12 mph81%29.92 "HgN/A
1:50 PM39 °FPassing clouds.12 mph81%29.92 "HgN/A
1:20 PM37 °FPassing clouds.12 mph87%29.92 "HgN/A
12:50 PM37 °FScattered clouds.10 mph87%29.95 "Hg5 mi
12:20 PM37 °FScattered clouds.10 mph87%29.95 "Hg4 mi
11:50 AM37 °FScattered clouds.10 mph87%29.95 "Hg5 mi
11:20 AM37 °FScattered clouds.10 mph81%29.95 "Hg5 mi
10:50 AM36 °FScattered clouds.12 mph93%29.95 "Hg5 mi
10:20 AM36 °FPartly sunny.9 mph93%29.98 "HgN/A
9:20 AM36 °FPartly sunny.12 mph93%29.95 "Hg5 mi
8:50 AM36 °FPartly sunny.10 mph93%29.95 "Hg5 mi
8:20 AM36 °FPartly sunny.13 mph93%29.95 "Hg5 mi
Weather by CustomWeather, © 2014

See weather overviewHow to use our weather pages